This is the latest recevied weather packets stored in our database for station/object KE0PRS. If no packets are shown the sender has not sent any weather packets the latest 10 day(s).
| Time | Temp. | Humidity | Pressure | Rain* | Wind** | Luminosity | Snow |
|---|---|---|---|---|---|---|---|
| 1787911850 | 19.44° C | 87% | 1021.7 hPa | 31.75 mm | - | 0 W/m² | - |
| 1787911545 | 20° C | 87% | 1022.2 hPa | 7.11 mm | - | 0 W/m² | - |
| 1787911244 | 19.44° C | 86% | 1021.9 hPa | 0 mm | - | 0 W/m² | - |
| 1787910941 | 19.44° C | 85% | 1021.4 hPa | 0 mm | - | 0 W/m² | - |
| 1787910637 | 19.44° C | 85% | 1021.5 hPa | 0 mm | - | 0 W/m² | - |
| 1787910337 | 19.44° C | 85% | 1021.4 hPa | 0 mm | - | 0 W/m² | - |
| 1787910032 | 19.44° C | 85% | 1021.1 hPa | 0 mm | - | 0 W/m² | - |
| 1787909729 | 19.44° C | 85% | 1021.3 hPa | 0 mm | - | 0 W/m² | - |
| 1787909429 | 19.44° C | 85% | 1021.3 hPa | 0 mm | - | 0 W/m² | - |
| 1787909125 | 19.44° C | 84% | 1021.6 hPa | 0 mm | - | 0 W/m² | - |
| 1787908820 | 19.44° C | 84% | 1021.4 hPa | 0 mm | - | 0 W/m² | - |
| 1787908515 | 19.44° C | 82% | 1020.8 hPa | 1.78 mm | - | 0 W/m² | - |
| 1787908214 | 20° C | 81% | 1019.7 hPa | 1.78 mm | - | 0 W/m² | - |
| 1787907913 | 20.56° C | 78% | 1019.4 hPa | 0 mm | - | 0 W/m² | - |
| 1787907610 | 21.11° C | 75% | 1020.8 hPa | 0 mm | - | 0 W/m² | - |
| 1787907308 | 20.56° C | 72% | 1021.6 hPa | 0 mm | - | 0 W/m² | - |
| 1787907005 | 20.56° C | 76% | 1022.6 hPa | 0 mm | - | 0 W/m² | - |
| 1787906702 | 20° C | 79% | 1022.7 hPa | 0 mm | - | 0 W/m² | - |
| 1787906397 | 20° C | 83% | 1023 hPa | 0 mm | - | 0 W/m² | - |
| 1787906096 | 20° C | 84% | 1023.1 hPa | 0 mm | - | 0 W/m² | - |
| 1787905792 | 20° C | 84% | 1023.1 hPa | 0 mm | - | 0 W/m² | - |
| 1787905487 | 20° C | 84% | 1023.1 hPa | 0 mm | - | 0 W/m² | - |
| 1787905183 | 20° C | 83% | 1022.9 hPa | 0 mm | - | 0 W/m² | - |
| 1787904877 | 20° C | 83% | 1023.1 hPa | 0 mm | - | 0 W/m² | - |
| 1787904574 | 20.56° C | 82% | 1023.1 hPa | 0 mm | - | 0 W/m² | - |
* Rain latest hour (hover to see other rain measurements)
** Current wind speed in m/s (hover to see current wind gust speed)